Regional Weather Roundup
Issued by NWS

Home | Current Version | Previous Version | Text Only | Print | Product List | Glossary Off
Versions: 1 2 3 4 5 6 7 8 9 10 11 12 13 14 15 16 17 18 19 20 21 22 23 24 25 26 27 28 29 30 31 32 33 34 35 36 37 38 39 40 41 42 43 44 45 46 47 48 49 50

286
ASUS43 KBIS 121502
RWRND

NORTH DAKOTA REGIONAL WEATHER ROUNDUP
NATIONAL WEATHER SERVICE BISMARCK ND
900 AM CST TUE DEC 12 2017

NOTE: "FAIR" INDICATES FEW OR NO CLOUDS BELOW 12,000 FEET WITH NO
SIGNIFICANT WEATHER AND/OR OBSTRUCTIONS TO VISIBILITY.


NDZ001>003-009>011-017-121600-
NORTHWEST NORTH DAKOTA

CITY           SKY/WX    TMP DP  RH WIND       PRES   REMARKS
WILLISTON        N/A     26  22  84 SW9       30.01F WCI  17
MINOT          PTCLDY    34  24  67 SW17      29.93F
MINOT AFB      CLOUDY    31  24  73 W15       29.92F
$$

NDZ018>021-031>035-040>046-121600-
SOUTHWEST NORTH DAKOTA

CITY           SKY/WX    TMP DP  RH WIND       PRES   REMARKS
BISMARCK       CLOUDY    27  24  89 SW3       30.04F
DICKINSON      CLOUDY    29  22  75 W13       30.01F WCI  19
GARRISON         N/A     27  24  89 W6        29.98F
HETTINGER ARPT CLOUDY    26  20  77 W9        30.08F WCI  17
$$

NDZ004>008-012>016-024-026-027-054-121600-
NORTHEAST NORTH DAKOTA

CITY           SKY/WX    TMP DP  RH WIND       PRES   REMARKS
GRAND FORKS    CLOUDY    21  18  88 S12       29.98F WCI   9
GRND FRKS AFB  CLOUDY    23  20  88 S9        29.97F WCI  13
DEVILS LAKE    CLOUDY    27  25  92 SW9       29.96F WCI  18
$$

NDZ022-023-025-028>030-036>039-047>053-121600-
SOUTHEAST NORTH DAKOTA

CITY           SKY/WX    TMP DP  RH WIND       PRES   REMARKS
FARGO          CLOUDY    22  18  85 S9        30.05F WCI  12
JAMESTOWN      CLOUDY    28  25  88 W10       30.01F WCI  19
$$





USA.gov is the U.S. government's official web portal to all federal, state and local government web resources and services.